Location: Unspecified
(18.3000°N, 0.0000°E)
Time: 09:58:54
(UTC+00:00)

ISS - Visible Passes

Search period start: 24 April 2019 00:00
Search period end: 04 May 2019 00:00
Orbit: 408 x 410 km, 51.6° (Epoch: 24 April)

Date Brightness Start Highest point End Pass type
(mag) Time Alt. Az. Time Alt. Az. Time Alt. Az.
24 Apr -3.4 05:04:38 10° SW 05:07:49 48° NW 05:11:02 10° NNE visible
25 Apr -3.5 04:16:27 49° S 04:17:03 61° SE 04:20:18 10° NE visible
26 Apr -0.7 03:28:09 15° E 03:28:09 15° E 03:29:01 10° ENE visible
26 Apr -1.6 05:01:00 10° W 05:02:49 14° NW 05:04:37 10° NNW visible
27 Apr -2.4 04:12:30 27° NNW 04:12:30 27° NNW 04:14:50 10° NNE visible
28 Apr -0.6 03:23:58 13° NE 03:23:58 13° NE 03:24:21 10° NE visible
